Jackson, NJ

9:19 PM EST on December 03, 2016 (GMT -0500)
Lakehurst Naes

Weather History for KNEL - December, 2013

Change the Weather History Date:

Saturday, December 14, 2013

  Actual Average Record
Temperature  
Mean Temperature 34 °F -  
Max Temperature 51 °F 45 °F 55 °F (2001)
Min Temperature 24 °F 33 °F 12 °F (2005)
Degree Days  
Heating Degree Days 30    
Moisture  
Dew Point 29 °F    
Average Humidity 86    
Maximum Humidity 97    
Minimum Humidity 69    
Precipitation  
Precipitation 0.07 in - - ()
Sea Level Pressure  
Sea Level Pressure 30.26 in    
Wind  
Wind Speed 6 mph (ENE)    
Max Wind Speed 20 mph    
Max Gust Speed 25 mph    
Averages and records for this station are not official NWS values.
T = Trace of Precipitation, MM = Missing Value Source: NWS Daily Summary

Daily Weather History Graph

Daily Weather History Graph

Search for Another Location

Airport or City:

Trip Planner

Search our weather history database for the weather conditions in past years. The results will help you decide how hot, cold, wet, or windy it might be!

Date:

Astronomy

Dec. 14, 2013 Rise Set
Actual Time 7:11 AM EST 4:32 PM EST
Civil Twilight 6:41 AM EST 5:03 PM EST
Nautical Twilight 6:07 AM EST 5:37 PM EST
Astronomical Twilight 5:34 AM EST 6:10 PM EST
Moon 2:52 PM EST (12/14) 4:29 AM EST (12/14)
Length of Visible Light 10h 22m
Length of Day
9h 21m
Waxing Gibbous, 93% of the Moon is Illuminated
Dec 14
Waxing Gibbous
Dec 17
Full
Dec 25
Last Quarter
Jan 1
New
Jan 7
First Quarter

Hourly Weather History & Observations

Time (EST) Temp. Windchill Dew Point Humidity Pressure Visibility Wind Dir Wind Speed Gust Speed Precip Events Conditions
12:00 AM 24.1 °F - 19.9 °F 84% 30.34 in - Calm Calm - N/A   Clear
1:00 AM 25.0 °F - 21.0 °F 85% 30.33 in - Calm Calm - N/A   Clear
2:00 AM 25.0 °F - 19.9 °F 81% 30.34 in - Calm Calm - N/A   Clear
3:00 AM 25.0 °F - 21.0 °F 85% 30.35 in - Calm Calm - N/A   Clear
4:00 AM 26.1 °F - 19.9 °F 78% 30.35 in - Calm Calm - N/A   Scattered Clouds
5:00 AM 26.1 °F - 21.9 °F 84% 30.37 in - Calm Calm - N/A   Scattered Clouds
6:00 AM 28.9 °F 23.9 °F 19.9 °F 69% 30.38 in - Variable 4.6 mph - N/A   Overcast
8:00 AM 32.0 °F 26.4 °F 26.1 °F 79% 30.41 in - NE 5.8 mph - N/A   Overcast
8:21 AM 33.8 °F 28.6 °F 26.6 °F 75% 30.42 in - NE 5.8 mph - N/A   Overcast
9:00 AM 33.1 °F 24.9 °F 26.1 °F 75% 30.42 in - ENE 10.4 mph - N/A   Overcast
10:00 AM 33.1 °F 23.4 °F 27.0 °F 78% 30.43 in - ENE 13.8 mph - N/A   Overcast
11:00 AM 33.1 °F 22.6 °F 27.0 °F 78% 30.41 in - ENE 16.1 mph 21.9 mph N/A   Overcast
12:00 PM 33.1 °F 23.4 °F 28.9 °F 85% 30.36 in - ENE 13.8 mph - 0.00 in Snow Light Snow
12:27 PM 33.8 °F 25.3 °F 30.2 °F 87% 30.35 in - ENE 11.5 mph 18.4 mph 0.00 in Snow Light Snow
1:00 PM 33.1 °F 22.6 °F 30.0 °F 89% 30.32 in - ENE 16.1 mph 21.9 mph 0.00 in Snow Snow
2:00 PM 32.0 °F 21.6 °F 30.9 °F 96% 30.29 in - ENE 15.0 mph - 0.00 in Snow Light Snow
4:00 PM 34.0 °F 24.2 °F 32.0 °F 92% 30.22 in - ENE 15.0 mph - 0.00 in Rain Light Rain
5:00 PM 36.0 °F 29.0 °F 35.1 °F 97% 30.18 in - NE 9.2 mph - 0.00 in Rain Light Rain
6:00 PM 37.0 °F 31.0 °F 36.0 °F 96% 30.12 in - NE 8.1 mph 16.1 mph N/A Rain Rain
7:00 PM 34.0 °F 26.6 °F 33.1 °F 96% 30.09 in - NE 9.2 mph - 0.07 in Rain Rain
7:31 PM 35.6 °F 31.7 °F 33.8 °F 93% 30.06 in - NE 4.6 mph - N/A Rain Light Rain
7:58 PM 42.8 °F 34.3 °F 39.2 °F 87% 30.02 in - East 19.6 mph 25.3 mph N/A Rain Rain
8:00 PM 43.0 °F 35.4 °F 41.0 °F 93% 30.01 in - East 16.1 mph 25.3 mph N/A Rain Rain
9:00 PM 45.0 °F 38.5 °F 43.0 °F 93% 29.96 in - East 13.8 mph - N/A Rain Light Rain
10:00 PM 46.0 °F 40.2 °F 44.1 °F 93% 29.87 in - East 12.7 mph - N/A Rain Rain